Tracking 27402 objects as of 2-Jun-2023
HD Live streaming from Space Station
objects crossing your sky now

CZ-2C R/B

Track CZ-2C R/B now!
10-day predictions


NORAD ID: 43610
Int'l Code: 2018-068B
Perigee: 653.8 km
Apogee: 781.6 km
Inclination: 98.7 °
Period: 99.0 minutes
Semi major axis: 7088 km
RCS: Unknown
Launch date: September 6, 2008
Source: People's Republic of China (PRC)
Launch site: Taiyaun Space Center, China (TSC)

Note: This is a ROCKET BODY
Your satellite tracking list
Your tracking list is empty




NASA's NSSDC Master Catalog

Two Line Element Set (TLE):
1 43610U 18068B   23152.87991499  .00000669  00000-0  16005-3 0  9992
2 43610  98.6548 294.4114 0090163 142.4797 218.2738 14.54634894251214
Source of the keplerian elements: AFSPC